State College, PA

12:26 PM EST on February 23, 2018 (GMT -0500)
University Park

Weather History for KUNV - March, 2014

Change the Weather History Date:

Friday, March 21, 2014

  Actual Average Record
Temperature  
Mean Temperature 41 °F -  
Max Temperature 50 °F 46 °F 77 °F (1948)
Min Temperature 32 °F 29 °F 9 °F (1986)
Degree Days  
Heating Degree Days 24    
Moisture  
Dew Point 18 °F    
Average Humidity 47    
Maximum Humidity 61    
Minimum Humidity 19    
Precipitation  
Precipitation 0.00 in - - ()
Sea Level Pressure  
Sea Level Pressure 29.98 in    
Wind  
Wind Speed 8 mph (West)    
Max Wind Speed 16 mph    
Max Gust Speed 18 mph    
Visibility 10 miles    
Events      
Averages and records for this station are not official NWS values.
T = Trace of Precipitation, MM = Missing Value Source: NWS Daily Summary

Daily Weather History Graph

Daily Weather History Graph

Search for Another Location

Airport or City:

Trip Planner

Search our weather history database for the weather conditions in past years. The results will help you decide how hot, cold, wet, or windy it might be!

Date:

Astronomy

Mar. 21, 2014 Rise Set
Actual Time 7:13 AM EDT 7:24 PM EDT
Civil Twilight 6:45 AM EDT 7:51 PM EDT
Nautical Twilight 6:13 AM EDT 8:24 PM EDT
Astronomical Twilight 5:41 AM EDT 8:56 PM EDT
Moon No Moon Rise 10:01 AM EDT (3/21)
Length of Visible Light 13h 06m
Length of Day
12h 11m
Waning Gibbous, 75% of the Moon is Illuminated
Mar 21
Waning Gibbous
Mar 23
Last Quarter
Mar 30
New
Apr 7
First Quarter
Apr 15
Full

Hourly Weather History & Observations

Time (EDT) Temp. Windchill Dew Point Humidity Pressure Visibility Wind Dir Wind Speed Gust Speed Precip Events Conditions
12:15 AM 34.9 °F 26.6 °F 22.5 °F 61% 29.96 in 10.0 mi West 11.5 mph - N/A   Overcast
12:35 AM 34.3 °F 29.2 °F 22.1 °F 61% 29.97 in 10.0 mi West 5.8 mph - N/A   Mostly Cloudy
12:55 AM 34.3 °F 26.5 °F 21.2 °F 59% 29.96 in 10.0 mi WNW 10.4 mph - N/A   Mostly Cloudy
1:15 AM 33.6 °F 26.2 °F 20.8 °F 59% 29.96 in 10.0 mi West 9.2 mph - N/A   Scattered Clouds
1:35 AM 32.7 °F 26.4 °F 20.3 °F 60% 29.96 in 10.0 mi West 6.9 mph - N/A   Clear
1:55 AM 32.7 °F 27.3 °F 20.1 °F 60% 29.97 in 10.0 mi West 5.8 mph - N/A   Clear
2:15 AM 32.9 °F 27.5 °F 19.8 °F 59% 29.97 in 10.0 mi West 5.8 mph - N/A   Scattered Clouds
2:35 AM 32.2 °F 25.8 °F 19.4 °F 59% 29.97 in 10.0 mi West 6.9 mph - N/A   Clear
2:55 AM 32.4 °F 24.6 °F 19.4 °F 59% 29.97 in 10.0 mi West 9.2 mph - N/A   Clear
3:15 AM 33.8 °F 27.0 °F 18.7 °F 54% 29.96 in 10.0 mi WNW 8.1 mph - N/A   Clear
3:35 AM 32.9 °F 25.3 °F 18.9 °F 56% 29.96 in 10.0 mi West 9.2 mph - N/A   Clear
3:55 AM 32.7 °F 25.0 °F 18.9 °F 57% 29.96 in 10.0 mi WNW 9.2 mph - N/A   Clear
4:15 AM 32.4 °F 25.3 °F 18.5 °F 57% 29.97 in 10.0 mi West 8.1 mph - N/A   Clear
4:35 AM 32.7 °F 23.9 °F 18.3 °F 55% 29.97 in 10.0 mi West 11.5 mph 18.4 mph N/A   Clear
4:55 AM 32.2 °F 25.8 °F 18.3 °F 57% 29.97 in 10.0 mi West 6.9 mph - N/A   Clear
5:15 AM 32.0 °F 27.5 °F 18.1 °F 57% 29.97 in 10.0 mi West 4.6 mph - N/A   Clear
5:35 AM 32.0 °F 27.5 °F 18.0 °F 56% 29.98 in 10.0 mi WSW 4.6 mph - N/A   Scattered Clouds
5:53 AM 32.0 °F 25.6 °F 17.6 °F 55% 29.98 in 10.0 mi WSW 6.9 mph - N/A   Mostly Cloudy
6:53 AM 32.0 °F 24.8 °F 17.6 °F 55% 30.01 in 10.0 mi West 8.1 mph - N/A   Scattered Clouds
7:53 AM 32.0 °F 24.8 °F 17.6 °F 55% 30.02 in 10.0 mi West 8.1 mph - N/A   Clear
8:53 AM 33.8 °F 26.4 °F 17.6 °F 52% 30.04 in 10.0 mi West 9.2 mph - N/A   Clear
9:53 AM 37.4 °F 29.8 °F 17.6 °F 45% 30.04 in 10.0 mi West 11.5 mph - N/A   Partly Cloudy
10:53 AM 39.2 °F 31.6 °F 15.8 °F 39% 30.03 in 10.0 mi West 12.7 mph - N/A   Partly Cloudy
11:53 AM 42.8 °F 37.0 °F 15.8 °F 34% 30.03 in 10.0 mi West 10.4 mph 16.1 mph N/A   Mostly Cloudy
12:53 PM 42.8 °F 35.1 °F 14.0 °F 31% 30.03 in 10.0 mi West 16.1 mph - N/A   Mostly Cloudy
1:50 PM 44.6 °F 38.8 °F 15.8 °F 31% 30.03 in 10.0 mi WSW 11.5 mph - N/A   Mostly Cloudy
2:50 PM 46.4 °F 41.1 °F 15.8 °F 29% 30.00 in 10.0 mi WSW 11.5 mph - N/A   Clear
3:53 PM 48.2 °F - 12.2 °F 24% 29.99 in 10.0 mi WSW 11.5 mph - N/A   Clear
4:50 PM 50.0 °F - 12.2 °F 22% 29.99 in 10.0 mi WSW 11.5 mph - N/A   Clear
5:53 PM 50.0 °F - 8.6 °F 19% 29.99 in 10.0 mi West 5.8 mph - N/A   Clear
6:53 PM 44.6 °F 40.7 °F 12.2 °F 27% 30.00 in 10.0 mi WSW 6.9 mph - N/A   Clear
7:53 PM 42.8 °F 40.1 °F 15.8 °F 34% 30.00 in 10.0 mi SSW 4.6 mph - N/A   Clear
8:53 PM 39.2 °F - 17.6 °F 42% 29.99 in 10.0 mi Calm Calm - N/A   Clear
9:15 PM 41.2 °F - 17.4 °F 38% 29.99 in 10.0 mi Calm Calm - N/A   Clear
9:35 PM 38.1 °F - 18.1 °F 45% 29.98 in 10.0 mi Calm Calm - N/A   Clear
9:55 PM 41.0 °F - 16.9 °F 38% 29.98 in 10.0 mi Calm Calm - N/A   Clear
10:15 PM 39.4 °F - 17.6 °F 41% 29.97 in 10.0 mi Calm Calm - N/A   Clear
10:35 PM 36.9 °F 33.1 °F 19.4 °F 49% 29.97 in 10.0 mi SW 4.6 mph - N/A   Clear
10:55 PM 37.9 °F 33.5 °F 18.5 °F 46% 29.97 in 10.0 mi SW 5.8 mph - N/A   Clear
11:15 PM 36.1 °F 33.5 °F 19.4 °F 51% 29.96 in 10.0 mi SSW 3.5 mph - N/A   Clear
11:35 PM 36.1 °F - 19.0 °F 50% 29.96 in 10.0 mi Calm Calm - N/A   Clear
11:55 PM 38.1 °F 34.6 °F 17.4 °F 43% 29.95 in 10.0 mi SW 4.6 mph - N/A   Clear